Preview of NWS' New Version of Forecast
This preview is not operational and should not be used for support decisions.

Regional Weather Roundup (RWR)

Issued by National Weather Service (NWS)

                            
000
ASUS45 KCYS 180910
RWRWY 

WYOMING REGIONAL WEATHER ROUNDUP
NATIONAL WEATHER SERVICE CHEYENNE WY
300 AM MDT TUE JUN 18 2019

NOTE:  "FAIR" INDICATES FEW OR NO CLOUDS BELOW 12,000 FEET
WITH NO SIGNIFICANT WEATHER AND/OR OBSTRUCTIONS TO VISIBILITY.

WYZ001-181000-
...YELLOWSTONE NATIONAL PARK...
  
CITY           SKY/WX    TMP DP  RH WIND       PRES   REMARKS
LK YELLOWSTONE NOT AVBL                                               
W YELLOWSTONE  NOT AVBL                                               

$$
WYZ002>013-054>058-071-098>099-181000-
...NORTHERN WYOMING...
  
CITY           SKY/WX    TMP DP  RH WIND       PRES   REMARKS
JACKSON        CLEAR     40  39  97 E6        30.19S                  
CODY           CLOUDY    56  49  77 CALM      30.09F                  
GREYBULL       MOCLDY    57  51  80 E5        30.04S                  
WORLAND        PTCLDY    52  50  93 SE3       30.04F                  
SHERIDAN       PTCLDY    47  44  90 CALM      30.03S                  
BUFFALO        PTCLDY    50  44  80 W6        30.07F                  
GILLETTE       PTCLDY    54  54 100 S9        30.06F                  
HULETT         NOT AVBL                                               
NEWCASTLE      CLOUDY    50  48  93 CALM      30.10F                  

$$
WYZ014>020-022>026-101>103-181000-
...CENTRAL WYOMING...
  
CITY           SKY/WX    TMP DP  RH WIND       PRES   REMARKS
BIG PINEY      PTCLDY    43  40  89 N7        30.19F                  
PINEDALE       MOCLDY    45  43  93 CALM      30.21S                  
DUBOIS         FAIR      43  37  81 W7        30.18F                  
LANDER         CLOUDY    53  45  74 W10       30.10F                  
RIVERTON       MOCLDY    52  50  93 E6        30.11F                  
CASPER         CLOUDY    55  53  93 N3        30.11S                  
DOUGLAS        PTCLDY    53  52  96 SE8       30.09F                  

$$
WYZ021-027>030-104>119-181000-
...SOUTHERN WYOMING...
  
CITY           SKY/WX    TMP DP  RH WIND       PRES   REMARKS
EVANSTON       MOCLDY    46  43  89 SW8       30.20S                  
KEMMERER       CLEAR     46  39  76 N5        30.20S                  
FORT BRIDGER   CLEAR     52  43  71 CALM      30.22S                  
ROCK SPRINGS   PTCLDY    49  46  90 CALM      30.17S                  
DIXON          MOCLDY    51  47  87 E14       30.18S                  
RAWLINS        CLOUDY    51  48  89 W3        30.16F                  
SARATOGA       MOCLDY    50  50 100 CALM      30.18S                  
LARAMIE        CLOUDY    49  46  90 SE7       30.16F                  
CHEYENNE         N/A    N/A N/A N/A MISG      30.13S                  
TORRINGTON     MOCLDY    56  55  97 NW5       30.05F                  
PINE BLUFFS    CLOUDY    54  54 100 CALM      30.11R FOG              

$$